N142RC MDJB-MDJB

Flight info

Callsign N142RC
Flight time 0h 12m
Altitude 4000
Route VFR
Aircraft B429/L-SFG/C

Departure

Time 2026-04-20 21:13
Airport La Isabela International Airport (MDJB)

Arrival

Time 2026-04-20 21:25
Airport La Isabela International Airport (MDJB)
Time Latitude Longitude Altitude Speed Heading
2026-04-20 20:42 19.86902 -70.81578 149 ft 0 kts 101°
2026-04-20 20:43 19.86902 -70.81579 149 ft 0 kts 101°
2026-04-20 20:44 19.86892 -70.81554 189 ft 21 kts 98°
2026-04-20 20:45 19.86746 -70.81125 361 ft 108 kts 104°
2026-04-20 20:45 19.86461 -70.80183 467 ft 144 kts 107°
2026-04-20 20:45 19.85957 -70.79333 1031 ft 136 kts 127°
2026-04-20 20:45 19.85197 -70.78781 1615 ft 134 kts 150°
2026-04-20 20:46 19.84299 -70.78469 2113 ft 137 kts 160°
2026-04-20 20:46 19.83381 -70.78164 2485 ft 138 kts 159°
2026-04-20 20:46 19.82472 -70.77816 2803 ft 141 kts 157°
2026-04-20 20:46 19.81567 -70.77428 2938 ft 144 kts 155°
2026-04-20 20:47 19.80629 -70.77047 3004 ft 145 kts 158°
2026-04-20 20:47 19.79674 -70.76662 3016 ft 146 kts 156°
2026-04-20 20:47 19.78757 -70.76236 3018 ft 146 kts 154°
2026-04-20 20:47 19.77845 -70.75758 3018 ft 145 kts 151°
2026-04-20 20:48 19.76950 -70.75253 3018 ft 146 kts 150°
2026-04-20 20:48 19.76065 -70.74742 3018 ft 146 kts 150°
2026-04-20 20:48 19.75172 -70.74225 3019 ft 146 kts 150°
2026-04-20 20:48 19.74279 -70.73707 3019 ft 146 kts 150°
2026-04-20 20:49 19.73388 -70.73190 3019 ft 146 kts 150°
2026-04-20 20:49 19.72506 -70.72678 3019 ft 146 kts 150°
2026-04-20 20:49 19.71614 -70.72160 3019 ft 146 kts 150°
2026-04-20 20:49 19.70728 -70.71645 3019 ft 146 kts 150°
2026-04-20 20:50 19.69830 -70.71121 3019 ft 146 kts 150°
2026-04-20 20:50 19.68942 -70.70602 3019 ft 146 kts 150°
2026-04-20 20:50 19.68048 -70.70079 3018 ft 147 kts 150°
2026-04-20 20:50 19.67150 -70.69549 3017 ft 147 kts 150°
2026-04-20 20:51 19.66267 -70.69027 3018 ft 147 kts 150°
2026-04-20 20:51 19.65372 -70.68497 3018 ft 147 kts 150°
2026-04-20 20:51 19.64475 -70.67967 3018 ft 147 kts 150°
2026-04-20 20:51 19.63588 -70.67443 3128 ft 143 kts 150°
2026-04-20 20:52 19.62725 -70.66932 3350 ft 142 kts 150°
2026-04-20 20:52 19.61857 -70.66417 3471 ft 144 kts 150°
2026-04-20 20:52 19.60987 -70.65900 3492 ft 146 kts 150°
2026-04-20 20:52 19.60096 -70.65369 3483 ft 146 kts 150°
2026-04-20 20:53 19.59207 -70.64841 3473 ft 146 kts 150°
2026-04-20 20:53 19.58321 -70.64314 3469 ft 146 kts 150°
2026-04-20 20:53 19.57433 -70.63786 3468 ft 146 kts 150°
2026-04-20 20:53 19.56548 -70.63259 3468 ft 146 kts 150°
2026-04-20 20:54 19.55670 -70.62737 3468 ft 146 kts 150°
2026-04-20 20:54 19.54782 -70.62209 3468 ft 146 kts 150°
2026-04-20 20:54 19.53884 -70.61676 3468 ft 146 kts 150°
2026-04-20 20:54 19.53007 -70.61155 3468 ft 146 kts 150°
2026-04-20 20:55 19.52121 -70.60628 3468 ft 146 kts 150°
2026-04-20 20:55 19.51234 -70.60102 3468 ft 146 kts 150°
2026-04-20 20:55 19.50350 -70.59577 3468 ft 146 kts 150°
2026-04-20 20:55 19.49459 -70.59047 3468 ft 146 kts 150°
2026-04-20 20:56 19.48570 -70.58517 3468 ft 146 kts 150°
2026-04-20 20:56 19.47680 -70.57986 3469 ft 146 kts 150°
2026-04-20 20:56 19.46794 -70.57458 3469 ft 146 kts 150°
2026-04-20 20:56 19.45909 -70.56931 3469 ft 146 kts 150°
2026-04-20 20:57 19.45023 -70.56404 3469 ft 146 kts 150°
2026-04-20 20:57 19.44133 -70.55876 3469 ft 146 kts 150°
2026-04-20 20:57 19.43243 -70.55347 3469 ft 146 kts 150°
2026-04-20 20:57 19.42355 -70.54817 3469 ft 146 kts 150°
2026-04-20 20:58 19.41465 -70.54286 3469 ft 146 kts 150°
2026-04-20 20:58 19.40574 -70.53755 3470 ft 146 kts 150°
2026-04-20 20:58 19.39686 -70.53226 3471 ft 147 kts 150°
2026-04-20 20:58 19.38805 -70.52700 3471 ft 147 kts 150°
2026-04-20 20:59 19.37915 -70.52171 3471 ft 147 kts 150°
2026-04-20 20:59 19.37027 -70.51641 3471 ft 147 kts 150°
2026-04-20 20:59 19.36137 -70.51110 3471 ft 147 kts 150°
2026-04-20 20:59 19.35248 -70.50580 3472 ft 147 kts 150°
2026-04-20 21:00 19.34355 -70.50048 3472 ft 147 kts 150°
2026-04-20 21:00 19.33475 -70.49523 3472 ft 147 kts 150°
2026-04-20 21:00 19.32581 -70.48989 3475 ft 147 kts 150°
2026-04-20 21:00 19.31688 -70.48455 3477 ft 147 kts 150°
2026-04-20 21:01 19.30799 -70.47924 3478 ft 147 kts 150°
2026-04-20 21:01 19.29909 -70.47391 3478 ft 147 kts 150°
2026-04-20 21:01 19.29018 -70.46858 3477 ft 147 kts 150°
2026-04-20 21:01 19.28137 -70.46332 3477 ft 147 kts 150°
2026-04-20 21:02 19.27244 -70.45798 3477 ft 147 kts 150°
2026-04-20 21:02 19.26370 -70.45276 3476 ft 147 kts 150°
2026-04-20 21:02 19.25471 -70.44738 3476 ft 147 kts 150°
2026-04-20 21:02 19.24580 -70.44206 3476 ft 147 kts 150°
2026-04-20 21:03 19.23688 -70.43673 3476 ft 147 kts 150°
2026-04-20 21:03 19.22794 -70.43139 3476 ft 147 kts 150°
2026-04-20 21:03 19.21914 -70.42613 3476 ft 147 kts 150°
2026-04-20 21:03 19.21017 -70.42077 3476 ft 147 kts 150°
2026-04-20 21:04 19.20125 -70.41544 3476 ft 147 kts 150°
2026-04-20 21:04 19.19243 -70.41016 3475 ft 147 kts 150°
2026-04-20 21:04 19.18353 -70.40482 3475 ft 147 kts 150°
2026-04-20 21:04 19.17463 -70.39950 3475 ft 147 kts 150°
2026-04-20 21:05 19.16573 -70.39418 3475 ft 147 kts 150°
2026-04-20 21:05 19.15682 -70.38887 3476 ft 147 kts 150°
2026-04-20 21:05 19.14785 -70.38351 3481 ft 148 kts 150°
2026-04-20 21:05 19.13891 -70.37814 3485 ft 148 kts 150°
2026-04-20 21:06 19.12999 -70.37278 3487 ft 148 kts 150°
2026-04-20 21:06 19.12103 -70.36740 3488 ft 148 kts 150°
2026-04-20 21:06 19.11208 -70.36200 3489 ft 148 kts 150°
2026-04-20 21:06 19.10323 -70.35666 3490 ft 148 kts 150°
2026-04-20 21:07 19.09720 -70.35303 3490 ft 148 kts 150°
2026-04-20 21:07 19.08520 -70.34581 3491 ft 148 kts 150°
2026-04-20 21:07 19.07928 -70.34225 3492 ft 148 kts 150°
2026-04-20 21:07 19.06743 -70.33511 3492 ft 148 kts 150°
2026-04-20 21:08 19.05848 -70.32971 3488 ft 148 kts 150°
2026-04-20 21:08 19.04957 -70.32435 3485 ft 148 kts 150°
2026-04-20 21:08 19.04064 -70.31899 3484 ft 148 kts 150°
2026-04-20 21:08 19.03459 -70.31536 3484 ft 148 kts 150°
2026-04-20 21:09 19.02272 -70.30823 3491 ft 149 kts 150°
2026-04-20 21:09 19.01660 -70.30454 3500 ft 150 kts 150°
2026-04-20 21:09 19.00768 -70.29913 3511 ft 150 kts 150°
2026-04-20 21:09 18.99862 -70.29365 3517 ft 150 kts 150°
2026-04-20 21:10 18.98954 -70.28813 3520 ft 150 kts 150°
2026-04-20 21:10 18.98044 -70.28262 3525 ft 151 kts 150°
2026-04-20 21:10 18.97126 -70.27705 3537 ft 152 kts 150°
2026-04-20 21:10 18.96208 -70.27150 3545 ft 152 kts 150°
2026-04-20 21:11 18.95295 -70.26596 3548 ft 152 kts 150°
2026-04-20 21:11 18.94377 -70.26038 3548 ft 152 kts 150°
2026-04-20 21:11 18.93456 -70.25478 3548 ft 152 kts 150°
2026-04-20 21:11 18.92533 -70.24917 3548 ft 152 kts 150°
2026-04-20 21:12 18.91614 -70.24358 3548 ft 152 kts 150°
2026-04-20 21:12 18.90704 -70.23807 3548 ft 152 kts 150°
2026-04-20 21:12 18.89782 -70.23247 3548 ft 152 kts 150°
2026-04-20 21:12 18.88858 -70.22687 3547 ft 152 kts 150°
2026-04-20 21:13 18.87948 -70.22135 3547 ft 152 kts 150°
2026-04-20 21:13 18.87027 -70.21575 3547 ft 152 kts 150°
2026-04-20 21:13 18.86104 -70.21014 3547 ft 152 kts 150°
2026-04-20 21:13 18.85187 -70.20455 3547 ft 152 kts 150°
2026-04-20 21:14 18.84265 -70.19894 3547 ft 152 kts 150°
2026-04-20 21:14 18.83347 -70.19336 3547 ft 152 kts 150°
2026-04-20 21:14 18.82437 -70.18783 3545 ft 152 kts 150°
2026-04-20 21:14 18.81520 -70.18225 3544 ft 152 kts 150°
2026-04-20 21:15 18.80604 -70.17668 3544 ft 152 kts 150°
2026-04-20 21:15 18.79684 -70.17108 3546 ft 152 kts 150°
2026-04-20 21:15 18.78771 -70.16551 3548 ft 152 kts 150°
2026-04-20 21:15 18.77846 -70.15988 3549 ft 152 kts 150°
2026-04-20 21:16 18.76924 -70.15427 3549 ft 152 kts 150°
2026-04-20 21:16 18.76005 -70.14867 3549 ft 153 kts 150°
2026-04-20 21:16 18.75098 -70.14314 3549 ft 153 kts 150°
2026-04-20 21:16 18.74178 -70.13754 3549 ft 153 kts 150°
2026-04-20 21:17 18.73260 -70.13195 3549 ft 153 kts 150°
2026-04-20 21:17 18.72340 -70.12635 3549 ft 153 kts 150°
2026-04-20 21:17 18.71417 -70.12074 3549 ft 153 kts 150°
2026-04-20 21:17 18.70500 -70.11516 3549 ft 153 kts 150°
2026-04-20 21:18 18.69579 -70.10955 3549 ft 153 kts 150°
2026-04-20 21:18 18.68659 -70.10396 3549 ft 153 kts 150°
2026-04-20 21:18 18.67739 -70.09836 3549 ft 153 kts 150°
2026-04-20 21:18 18.66822 -70.09277 3549 ft 153 kts 150°
2026-04-20 21:19 18.65903 -70.08717 3549 ft 153 kts 150°
2026-04-20 21:19 18.64981 -70.08155 3549 ft 153 kts 150°
2026-04-20 21:19 18.64067 -70.07599 3549 ft 153 kts 150°
2026-04-20 21:20 18.62219 -70.06473 3551 ft 153 kts 150°
2026-04-20 21:20 18.61301 -70.05911 3552 ft 153 kts 150°
2026-04-20 21:20 18.60381 -70.05349 3552 ft 153 kts 150°
2026-04-20 21:20 18.59460 -70.04788 3552 ft 153 kts 150°
2026-04-20 21:21 18.58539 -70.04226 3552 ft 153 kts 150°
2026-04-20 21:21 18.57629 -70.03671 3553 ft 153 kts 150°
2026-04-20 21:21 18.56688 -70.03096 3460 ft 157 kts 150°
2026-04-20 21:21 18.55727 -70.02509 3108 ft 160 kts 150°
2026-04-20 21:22 18.54779 -70.01932 2696 ft 159 kts 152°
2026-04-20 21:22 18.53855 -70.01339 2313 ft 156 kts 151°
2026-04-20 21:22 18.52944 -70.00735 1937 ft 153 kts 150°
2026-04-20 21:22 18.52046 -70.00143 1564 ft 152 kts 150°
2026-04-20 21:23 18.51170 -69.99555 1334 ft 147 kts 148°
2026-04-20 21:23 18.50360 -69.98905 1203 ft 146 kts 142°
2026-04-20 21:23 18.49601 -69.98197 1167 ft 145 kts 140°
2026-04-20 21:23 18.48856 -69.97484 1145 ft 146 kts 140°
2026-04-20 21:24 18.48099 -69.96799 1062 ft 141 kts 144°
2026-04-20 21:24 18.47219 -69.96431 1058 ft 137 kts 171°
2026-04-20 21:24 18.46279 -69.96275 1018 ft 132 kts 171°
2026-04-20 21:24 18.45397 -69.96112 929 ft 125 kts 170°
2026-04-20 21:25 18.44596 -69.95959 870 ft 106 kts 170°
2026-04-20 21:25 18.44005 -69.95835 998 ft 61 kts 169°
2026-04-20 21:25 18.43714 -69.95759 940 ft 34 kts 167°
2026-04-20 21:25 18.43470 -69.95677 691 ft 39 kts 165°
2026-04-20 21:26 18.43245 -69.95479 445 ft 55 kts 127°
2026-04-20 21:26 18.43237 -69.95110 276 ft 47 kts 78°
2026-04-20 21:26 18.43324 -69.94875 145 ft 27 kts 91°
2026-04-20 21:26 18.43354 -69.94736 67 ft 12 kts 113°
2026-04-20 21:27 18.43352 -69.94718 56 ft 1 kts 170°
2026-04-20 21:27 18.43351 -69.94716 52 ft 0 kts 191°
2026-04-20 21:32 18.43352 -69.94716 52 ft 0 kts 195°
2026-04-20 21:33 18.43300 -69.94688 77 ft 46 kts 156°
2026-04-20 21:33 18.43713 -69.94438 338 ft 144 kts 347°
2026-04-20 21:33 18.44785 -69.94715 553 ft 160 kts 346°
2026-04-20 21:34 18.45859 -69.95001 990 ft 162 kts 345°
2026-04-20 21:34 18.46970 -69.95304 1180 ft 165 kts 345°
2026-04-20 21:34 18.48102 -69.95616 1223 ft 168 kts 344°
2026-04-20 21:34 18.49211 -69.95923 1368 ft 166 kts 344°
2026-04-20 21:35 18.49912 -69.96117 1467 ft 167 kts 344°
2026-04-20 21:35 18.51049 -69.96426 1465 ft 169 kts 345°
2026-04-20 21:35 18.52192 -69.96706 1463 ft 168 kts 346°
2026-04-20 21:35 18.53341 -69.96962 1459 ft 166 kts 347°
2026-04-20 21:36 18.54493 -69.97069 1608 ft 164 kts
2026-04-20 21:36 18.55654 -69.97003 1726 ft 168 kts
2026-04-20 21:36 18.56830 -69.96934 1689 ft 171 kts
2026-04-20 21:36 18.58006 -69.96861 1653 ft 168 kts
2026-04-20 21:37 18.59013 -69.97064 1029 ft 140 kts 309°
2026-04-20 21:37 18.58911 -69.97866 387 ft 110 kts 214°
2026-04-20 21:37 18.58438 -69.98240 526 ft 67 kts 201°
2026-04-20 21:37 18.58241 -69.98287 503 ft 17 kts 192°
2026-04-20 21:38 18.58039 -69.98298 255 ft 36 kts 184°
2026-04-20 21:38 18.57912 -69.98311 114 ft 13 kts 193°
2026-04-20 21:38 18.57886 -69.98235 95 ft 5 kts 120°
2026-04-20 21:38 18.57895 -69.98244 102 ft 3 kts 172°
2026-04-20 21:39 18.57901 -69.98246 89 ft 2 kts 206°
2026-04-20 21:39 18.57898 -69.98248 83 ft 0 kts 228°
2026-04-20 21:39 18.57898 -69.98247 82 ft 0 kts 237°